| time (UTC) | temp F | wind direction | speed MPH | gust MPH | rain 1hr in | rain 24hr in | rain mn in | humidity % | barometer mb |
| 20260504141116 | 73 | 150 | 3.0 | 4.0 | 0.00 | 0.00 | 0.00 | 37 | 1001.4 |
| 20260504140115 | 69 | 122 | 3.0 | 7.0 | 0.00 | 0.00 | 0.00 | 39 | 1001.4 |
| 20260504130115 | 64 | 272 | 1.0 | 2.0 | 0.00 | 0.00 | 0.00 | 47 | 1001.4 |
| 20260504120116 | 55 | 274 | 5.0 | 6.0 | 0.00 | 0.00 | 0.00 | 56 | 1001.4 |
| 20260504110116 | 51 | 275 | 8.0 | 8.0 | 0.00 | 0.00 | 0.00 | 63 | 1001.4 |
| 20260504100115 | 50 | 274 | 8.0 | 8.0 | 0.00 | 0.00 | 0.00 | 62 | 1002.5 |
| 20260504090117 | 52 | 273 | 7.0 | 8.0 | 0.00 | 0.00 | 0.00 | 56 | 1002.5 |
| 20260504081136 | 51 | 273 | 7.0 | 8.0 | 0.00 | 0.00 | 0.00 | 56 | 1003.5 |
| 20260504080135 | 52 | 273 | 7.0 | 7.0 | 0.00 | 0.00 | 0.00 | 55 | 1003.5 |
| 20260504070135 | 56 | 274 | 5.0 | 5.0 | 0.00 | 0.00 | 0.00 | 46 | 1004.5 |
| 20260504060115 | 54 | 274 | 6.0 | 6.0 | 0.00 | 0.00 | 0.00 | 51 | 1005.5 |
| 20260504050116 | 56 | 275 | 4.0 | 4.0 | 0.00 | 0.00 | 0.00 | 45 | 1005.5 |
| 20260504045117 | 56 | 274 | 4.0 | 4.0 | 0.00 | 0.00 | 0.00 | 45 | 1005.5 |
| 20260504044115 | 56 | 274 | 3.0 | 4.0 | 0.00 | 0.00 | 0.00 | 44 | 1005.5 |
| 20260504043118 | 57 | 274 | 4.0 | 4.0 | 0.00 | 0.00 | 0.00 | 43 | 1005.5 |
| 20260504042115 | 58 | 274 | 3.0 | 3.0 | 0.00 | 0.00 | 0.00 | 42 | 1005.5 |
| 20260504041116 | 58 | 275 | 3.0 | 3.0 | 0.00 | 0.00 | 0.00 | 41 | 1006.6 |
| 20260504040136 | 58 | 276 | 2.0 | 3.0 | 0.00 | 0.00 | 0.00 | 41 | 1006.6 |
| 20260504035116 | 59 | 277 | 1.0 | 2.0 | 0.00 | 0.00 | 0.00 | 39 | 1006.6 |
| 20260504034117 | 60 | 322 | 0.0 | 1.0 | 0.00 | 0.00 | 0.00 | 37 | 1006.6 |
| 20260504033115 | 62 | 0.0 | 0.0 | 0.00 | 0.00 | 0.00 | 35 | 1006.6 | |
| 20260504032115 | 62 | 0.0 | 0.0 | 0.00 | 0.00 | 0.00 | 35 | 1006.6 | |
| 20260504031117 | 63 | 37 | 0.0 | 1.0 | 0.00 | 0.00 | 0.00 | 33 | 1006.6 |
| 20260504030115 | 63 | 55 | 0.0 | 1.0 | 0.00 | 0.00 | 0.00 | 33 | 1006.6 |
| 20260504025116 | 63 | 80 | 1.0 | 2.0 | 0.00 | 0.00 | 0.00 | 32 | 1006.6 |
| 20260504024137 | 63 | 84 | 2.0 | 2.0 | 0.00 | 0.00 | 0.00 | 32 | 1006.6 |
| 20260504023115 | 63 | 80 | 1.0 | 2.0 | 0.00 | 0.00 | 0.00 | 33 | 1006.6 |
| 20260504022116 | 64 | 78 | 2.0 | 2.0 | 0.00 | 0.00 | 0.00 | 32 | 1006.6 |
| 20260504021116 | 64 | 76 | 2.0 | 2.0 | 0.00 | 0.00 | 0.00 | 32 | 1006.6 |
| 20260504020117 | 64 | 79 | 2.0 | 2.0 | 0.00 | 0.00 | 0.00 | 31 | 1006.6 |
| 20260504015118 | 65 | 83 | 2.0 | 3.0 | 0.00 | 0.00 | 0.00 | 31 | 1006.6 |
| 20260504014116 | 67 | 71 | 2.0 | 2.0 | 0.00 | 0.00 | 0.00 | 29 | 1006.6 |
| 20260504013135 | 67 | 77 | 4.0 | 4.0 | 0.00 | 0.00 | 0.00 | 28 | 1006.6 |
| 20260504012156 | 69 | 69 | 4.0 | 4.0 | 0.00 | 0.00 | 0.00 | 27 | 1006.6 |
| 20260504011116 | 71 | 82 | 4.0 | 4.0 | 0.00 | 0.00 | 0.00 | 26 | 1006.6 |
| 20260504010115 | 74 | 90 | 3.0 | 4.0 | 0.00 | 0.00 | 0.00 | 25 | 1006.6 |
| 20260504005117 | 76 | 90 | 2.0 | 4.0 | 0.00 | 0.00 | 0.00 | 23 | 1006.6 |
| 20260504004116 | 77 | 85 | 1.0 | 3.0 | 0.00 | 0.00 | 0.00 | 23 | 1006.6 |
| 20260504003117 | 79 | 111 | 1.0 | 4.0 | 0.00 | 0.00 | 0.00 | 22 | 1006.6 |
| 20260504002115 | 82 | 90 | 3.0 | 4.0 | 0.00 | 0.00 | 0.00 | 21 | 1006.6 |
| 20260504001116 | 81 | 102 | 1.0 | 3.0 | 0.00 | 0.00 | 0.00 | 21 | 1006.6 |
| 20260504000116 | 83 | 128 | 2.0 | 4.0 | 0.00 | 0.00 | 0.00 | 19 | 1006.6 |
| 20260503235115 | 84 | 114 | 1.0 | 3.0 | 0.00 | 0.00 | 0.00 | 20 | 1006.6 |
| 20260503234136 | 84 | 89 | 1.0 | 3.0 | 0.00 | 0.00 | 0.00 | 20 | 1006.6 |
| 20260503233136 | 84 | 241 | 3.0 | 8.0 | 0.00 | 0.00 | 0.00 | 19 | 1006.6 |
| 20260503232117 | 85 | 230 | 2.0 | 4.0 | 0.00 | 0.00 | 0.00 | 18 | 1006.6 |
| 20260503231115 | 84 | 287 | 1.0 | 3.0 | 0.00 | 0.00 | 0.00 | 19 | 1006.6 |
| 20260503230117 | 87 | 335 | 3.0 | 4.0 | 0.00 | 0.00 | 0.00 | 18 | 1006.6 |
| 20260503225116 | 87 | 33 | 3.0 | 7.0 | 0.00 | 0.00 | 0.00 | 17 | 1006.6 |
| 20260503224136 | 85 | 332 | 3.0 | 5.0 | 0.00 | 0.00 | 0.00 | 18 | 1006.6 |
| 20260503223117 | 87 | 6 | 3.0 | 8.0 | 0.00 | 0.00 | 0.00 | 19 | 1006.6 |
| 20260503222115 | 86 | 316 | 2.0 | 5.0 | 0.00 | 0.00 | 0.00 | 20 | 1006.6 |
| 20260503221117 | 86 | 81 | 2.0 | 4.0 | 0.00 | 0.00 | 0.00 | 18 | 1006.6 |
| 20260503220115 | 84 | 269 | 4.0 | 8.0 | 0.00 | 0.00 | 0.00 | 18 | 1006.6 |
| 20260503215116 | 84 | 262 | 5.0 | 10.0 | 0.00 | 0.00 | 0.00 | 19 | 1006.6 |
| 20260503214117 | 84 | 283 | 3.0 | 6.0 | 0.00 | 0.00 | 0.00 | 19 | 1006.6 |
| 20260503213137 | 83 | 261 | 2.0 | 4.0 | 0.00 | 0.00 | 0.00 | 20 | 1006.6 |
| 20260503212116 | 84 | 9 | 2.0 | 5.0 | 0.00 | 0.00 | 0.00 | 21 | 1007.5 |
| 20260503211116 | 86 | 80 | 4.0 | 6.0 | 0.00 | 0.00 | 0.00 | 20 | 1007.6 |
| 20260503210116 | 83 | 255 | 2.0 | 5.0 | 0.00 | 0.00 | 0.00 | 20 | 1007.6 |
| 20260503205120 | 82 | 47 | 3.0 | 6.0 | 0.00 | 0.00 | 0.00 | 21 | 1007.6 |
| 20260503204115 | 80 | 48 | 3.0 | 6.0 | 0.00 | 0.00 | 0.00 | 22 | 1007.6 |
| 20260503203115 | 82 | 45 | 2.0 | 4.0 | 0.00 | 0.00 | 0.00 | 21 | 1007.6 |
| 20260503202115 | 84 | 63 | 5.0 | 7.0 | 0.00 | 0.00 | 0.00 | 21 | 1007.6 |
| 20260503201118 | 86 | 47 | 9.0 | 15.0 | 0.00 | 0.00 | 0.00 | 19 | 1007.6 |
| 20260503200115 | 84 | 62 | 4.0 | 6.0 | 0.00 | 0.00 | 0.00 | 21 | 1007.6 |
| 20260503195137 | 86 | 78 | 6.0 | 8.0 | 0.00 | 0.00 | 0.00 | 22 | 1007.6 |
| 20260503194115 | 86 | 69 | 6.0 | 9.0 | 0.00 | 0.00 | 0.00 | 22 | 1007.6 |
| 20260503193115 | 85 | 62 | 6.0 | 12.0 | 0.00 | 0.00 | 0.00 | 23 | 1007.6 |
| 20260503192115 | 82 | 66 | 6.0 | 10.0 | 0.00 | 0.00 | 0.00 | 23 | 1007.6 |
| 20260503191116 | 80 | 293 | 5.0 | 9.0 | 0.00 | 0.00 | 0.00 | 24 | 1007.6 |
| 20260503190117 | 81 | 74 | 4.0 | 8.0 | 0.00 | 0.00 | 0.00 | 24 | 1007.6 |
| 20260503185117 | 80 | 29 | 2.0 | 6.0 | 0.00 | 0.00 | 0.00 | 25 | 1007.6 |
| 20260503184117 | 81 | 54 | 2.0 | 5.0 | 0.00 | 0.00 | 0.00 | 25 | 1007.6 |
| 20260503183135 | 81 | 51 | 4.0 | 5.0 | 0.00 | 0.00 | 0.00 | 25 | 1007.6 |
| 20260503182116 | 78 | 345 | 5.0 | 12.0 | 0.00 | 0.00 | 0.00 | 25 | 1007.6 |
| 20260503181115 | 80 | 80 | 5.0 | 8.0 | 0.00 | 0.00 | 0.00 | 24 | 1008.6 |
| 20260503180137 | 80 | 61 | 5.0 | 7.0 | 0.00 | 0.00 | 0.00 | 25 | 1008.6 |
| 20260503175117 | 78 | 34 | 4.0 | 5.0 | 0.00 | 0.00 | 0.00 | 27 | 1008.5 |
| 20260503174117 | 77 | 43 | 2.0 | 4.0 | 0.00 | 0.00 | 0.00 | 27 | 1007.6 |
| 20260503173136 | 80 | 79 | 6.0 | 12.0 | 0.00 | 0.00 | 0.00 | 25 | 1007.6 |
| 20260503172116 | 78 | 337 | 3.0 | 8.0 | 0.00 | 0.00 | 0.00 | 27 | 1007.6 |
| 20260503171115 | 77 | 299 | 3.0 | 7.0 | 0.00 | 0.00 | 0.00 | 27 | 1008.5 |
| 20260503170117 | 76 | 333 | 2.0 | 4.0 | 0.00 | 0.00 | 0.00 | 28 | 1008.6 |
| 20260503160115 | 70 | 352 | 2.0 | 4.0 | 0.00 | 0.00 | 0.00 | 34 | 1008.6 |
| 20260503150116 | 70 | 272 | 4.0 | 8.0 | 0.00 | 0.00 | 0.00 | 34 | 1008.6 |